Location: Bonny Doon Airfield
(37.0704°N, 122.1252°W)
Time: 01:52:47
(UTC-08:00)

OTV 5 (USA 277) - Pass Details

Date: 09 October 2017
Orbit: 404 x 417 km, 43.0° (Epoch: 07 September)

Event Time Altitude Azimuth Distance (km) Brightness Sun altitude
Rises 20:38:45 0° 256° (WSW) 2,346 ? -24.5°
Reaches altitude 10° 20:40:52 10° 260° (W) 1,485 ? -24.9°
Enters shadow 20:42:53 32° 275° (W) 744 ? -25.3°
